Location: Zagreb
(45.8000°N, 16.0000°E)
Time: 20:51:12
(UTC+01:00)

Tiros 1 despin weight - All Passes

Search period start: 25 January 2022 00:00
Search period end: 04 February 2022 00:00
Orbit: 592 x 641 km, 48.2° (Epoch: 25 January)

Date Brightness Start Highest point End Pass type
(mag) Time Alt. Az. Time Alt. Az. Time Alt. Az.
25 Jan - 15:47:18 10° S 15:50:39 20° SE 15:54:03 10° E daylight
25 Jan - 17:27:07 10° WSW 17:31:39 72° SSE 17:36:17 10° ENE visible
25 Jan - 19:08:44 10° W 19:13:19 65° N 19:17:58 10° E visible
25 Jan - 20:50:27 10° WNW 20:55:08 84° NNE 20:59:49 10° ESE visible
25 Jan - 22:32:11 10° W 22:36:27 35° SW 22:40:43 10° SSE night (unlit)
26 Jan - 16:02:19 10° SSW 16:06:25 34° SE 16:10:36 10° E daylight
26 Jan - 17:43:08 10° WSW 17:47:43 84° NNW 17:52:23 10° ENE visible
26 Jan - 19:24:55 10° W 19:29:31 65° N 19:34:10 10° E visible
26 Jan - 21:06:33 10° WNW 21:11:12 72° SSW 21:15:51 10° ESE visible
26 Jan - 22:48:43 10° W 22:52:14 21° SW 22:55:46 10° S night (unlit)
27 Jan - 14:39:08 10° SSE 14:41:31 14° SE 14:43:56 10° ESE daylight
27 Jan - 16:17:54 10° SW 16:22:19 55° SSE 16:26:50 10° ENE daylight
27 Jan - 17:59:18 10° W 18:03:52 69° N 18:08:30 10° ENE visible
27 Jan - 19:41:04 10° WNW 19:45:42 74° NNE 19:50:22 10° E visible
27 Jan - 21:22:42 10° WNW 21:27:10 47° SSW 21:31:40 10° SE visible
27 Jan - 23:06:14 10° WSW 23:07:54 12° SW 23:09:34 10° SSW night (unlit)
28 Jan - 14:53:32 10° SSW 14:57:13 25° SE 15:00:57 10° E daylight
28 Jan - 16:33:47 10° WSW 16:38:20 82° SSE 16:42:57 10° ENE daylight
28 Jan - 18:15:29 10° W 18:20:03 64° N 18:24:41 10° E visible
28 Jan - 19:57:09 10° WNW 20:01:48 88° SSW 20:06:30 10° ESE visible
28 Jan - 21:39:01 10° W 21:43:02 29° SW 21:47:04 10° SSE visible
29 Jan - 15:08:48 10° SW 15:13:01 41° SSE 15:17:20 10° ENE daylight
29 Jan - 16:49:52 10° W 16:54:26 77° NNW 16:59:04 10° ENE daylight
29 Jan - 18:31:40 10° WNW 18:36:14 67° N 18:40:52 10° E visible
29 Jan - 20:13:16 10° WNW 20:17:51 62° SSW 20:22:28 10° SE visible
29 Jan - 21:55:45 10° W 21:58:46 17° SW 22:01:47 10° S night (unlit)
30 Jan - 13:45:02 10° S 13:48:03 18° SE 13:51:05 10° E daylight
30 Jan - 15:24:30 10° SW 15:28:58 65° SSE 15:33:31 10° ENE daylight
30 Jan - 17:06:03 10° W 17:10:35 66° N 17:15:12 10° ENE daylight
30 Jan - 18:47:46 10° WNW 18:52:23 80° NNE 18:57:04 10° ESE visible
30 Jan - 20:29:27 10° WNW 20:33:47 39° SSW 20:38:07 10° SE visible
31 Jan - 13:59:52 10° SSW 14:03:47 30° SE 14:07:47 10° E daylight
31 Jan - 15:40:29 10° WSW 15:45:01 89° N 15:49:37 10° ENE daylight
31 Jan - 17:22:14 10° W 17:26:46 64° N 17:31:23 10° E visible
31 Jan - 19:03:52 10° WNW 19:08:28 78° SSW 19:13:08 10° ESE visible
31 Jan - 20:45:53 10° W 20:49:35 24° SW 20:53:18 10° SSE visible
01 Feb - 12:37:11 10° SSE 12:38:55 12° SE 12:40:41 10° ESE daylight
01 Feb - 14:15:20 10° SW 14:19:39 50° SSE 14:24:03 10° ENE daylight
01 Feb - 15:56:37 10° W 16:01:07 71° N 16:05:43 10° ENE daylight
01 Feb - 17:38:23 10° WNW 17:42:57 71° N 17:47:34 10° E visible
01 Feb - 19:20:00 10° WNW 19:24:28 52° SSW 19:28:59 10° SE visible
01 Feb - 21:03:01 10° WSW 21:05:17 13° SW 21:07:32 10° SSW visible
02 Feb - 12:51:10 10° S 12:54:35 22° SE 12:58:04 10° E daylight
02 Feb - 14:31:09 10° WSW 14:35:38 76° SSE 14:40:10 10° ENE daylight
02 Feb - 16:12:48 10° W 16:17:18 64° N 16:21:53 10° E daylight
02 Feb - 17:54:29 10° WNW 17:59:04 87° NNE 18:03:43 10° ESE visible
02 Feb - 19:36:14 10° W 19:40:20 32° SW 19:44:29 10° SSE visible
03 Feb - 13:06:17 10° SSW 13:10:22 37° SE 13:14:32 10° E daylight
03 Feb - 14:47:12 10° WSW 14:51:41 80° NNW 14:56:17 10° ENE daylight
03 Feb - 16:28:58 10° WNW 16:33:29 65° N 16:38:04 10° E daylight
03 Feb - 18:10:34 10° WNW 18:15:06 68° SSW 18:19:43 10° ESE visible
03 Feb - 19:52:50 10° W 19:56:06 19° SW 19:59:24 10° S visible
